iso_date,epoch_date,Year,Hour,Min,DOY,POS_DOY,Lat,Lon,BP,Ts,Ta,has_bp,has_ts,has_ta,BuoyID,Buoy_Type,Buoy_Owner,Logistics,Hemisphere
2018-01-28T00:00:00Z,1517097600,2018,0,0,28.0,28.0,-51.3854,18.2184,1013.9,2.61,-999.0,yes,yes,no,300234063347170,BD2GHI,AOML,AGULHAS_II,South
2018-01-28T01:00:28Z,1517101229,2018,1,0,28.042,28.042,-51.3826,18.233,1011.9,2.6,-999.0,yes,yes,no,300234063347170,BD2GHI,AOML,AGULHAS_II,South
2018-01-28T01:59:31Z,1517104771,2018,2,0,28.083,28.083,-51.378,18.2484,1010.1,2.6,-999.0,yes,yes,no,300234063347170,BD2GHI,AOML,AGULHAS_II,South
2018-01-28T03:00:00Z,1517108400,2018,3,0,28.125,28.125,-51.3736,18.264,1008.6,2.59,-999.0,yes,yes,no,300234063347170,BD2GHI,AOML,AGULHAS_II,South
2018-01-28T04:00:28Z,1517112029,2018,4,0,28.167,28.167,-51.3664,18.279,1007.9,2.57,-999.0,yes,yes,no,300234063347170,BD2GHI,AOML,AGULHAS_II,South
2018-01-28T04:59:31Z,1517115571,2018,5,0,28.208,28.208,-51.3582,18.2958,1007.5,2.57,-999.0,yes,yes,no,300234063347170,BD2GHI,AOML,AGULHAS_II,South
2018-01-28T06:00:00Z,1517119200,2018,6,0,28.25,28.25,-51.348,18.3124,1006.5,2.56,-999.0,yes,yes,no,300234063347170,BD2GHI,AOML,AGULHAS_II,South
2018-01-28T07:00:28Z,1517122829,2018,7,0,28.292,28.292,-51.3354,18.3292,1006.5,2.54,-999.0,yes,yes,no,300234063347170,BD2GHI,AOML,AGULHAS_II,South
2018-01-28T07:59:31Z,1517126371,2018,8,0,28.333,28.333,-51.3224,18.3468,1006.3,2.53,-999.0,yes,yes,no,300234063347170,BD2GHI,AOML,AGULHAS_II,South
2018-01-28T09:00:00Z,1517130000,2018,9,0,28.375,28.375,-51.309,18.358,1006.6,2.54,-999.0,yes,yes,no,300234063347170,BD2GHI,AOML,AGULHAS_II,South
2018-01-28T10:00:28Z,1517133629,2018,10,0,28.417,28.417,-51.293,18.3676,1007.2,2.55,-999.0,yes,yes,no,300234063347170,BD2GHI,AOML,AGULHAS_II,South
2018-01-28T10:59:31Z,1517137171,2018,11,0,28.458,28.458,-51.2798,18.3776,1007.4,2.56,-999.0,yes,yes,no,300234063347170,BD2GHI,AOML,AGULHAS_II,South
2018-01-28T12:00:00Z,1517140800,2018,12,0,28.5,28.5,-51.2708,18.382,1008.2,2.55,-999.0,yes,yes,no,300234063347170,BD2GHI,AOML,AGULHAS_II,South
2018-01-28T13:00:28Z,1517144429,2018,13,0,28.542,28.542,-51.2628,18.3878,1008.0,2.56,-999.0,yes,yes,no,300234063347170,BD2GHI,AOML,AGULHAS_II,South
2018-01-28T13:59:31Z,1517147971,2018,14,0,28.583,28.583,-51.2532,18.393,1008.3,2.55,-999.0,yes,yes,no,300234063347170,BD2GHI,AOML,AGULHAS_II,South
2018-01-28T15:01:26Z,1517151686,2018,15,1,28.626,28.626,-51.2506,18.4052,1008.3,2.56,-999.0,yes,yes,no,300234063347170,BD2GHI,AOML,AGULHAS_II,South
2018-01-28T16:00:28Z,1517155229,2018,16,0,28.667,28.667,-51.2462,18.4168,1008.4,2.57,-999.0,yes,yes,no,300234063347170,BD2GHI,AOML,AGULHAS_II,South
2018-01-28T17:02:24Z,1517158944,2018,17,2,28.71,28.71,-51.2426,18.4332,1008.5,2.57,-999.0,yes,yes,no,300234063347170,BD2GHI,AOML,AGULHAS_II,South
2018-01-28T18:01:26Z,1517162486,2018,18,1,28.751,28.751,-51.2362,18.4492,1008.6,2.56,-999.0,yes,yes,no,300234063347170,BD2GHI,AOML,AGULHAS_II,South
2018-01-28T19:00:28Z,1517166029,2018,19,0,28.792,28.792,-51.2322,18.4704,1008.9,2.56,-999.0,yes,yes,no,300234063347170,BD2GHI,AOML,AGULHAS_II,South
2018-01-28T20:00:57Z,1517169658,2018,20,1,28.834,28.834,-51.2242,18.492,1008.8,2.56,-999.0,yes,yes,no,300234063347170,BD2GHI,AOML,AGULHAS_II,South
2018-01-28T21:00:00Z,1517173200,2018,21,0,28.875,28.875,-51.2146,18.5126,1008.5,2.55,-999.0,yes,yes,no,300234063347170,BD2GHI,AOML,AGULHAS_II,South
2018-01-28T22:00:28Z,1517176829,2018,22,0,28.917,28.917,-51.2046,18.532,1008.1,2.56,-999.0,yes,yes,no,300234063347170,BD2GHI,AOML,AGULHAS_II,South
2018-01-28T22:59:31Z,1517180371,2018,23,0,28.958,28.958,-51.1948,18.5498,1007.4,2.55,-999.0,yes,yes,no,300234063347170,BD2GHI,AOML,AGULHAS_II,South
2018-01-29T00:01:26Z,1517184086,2018,0,2,29.001,29.001,-51.1862,18.5698,1006.4,2.55,-999.0,yes,yes,no,300234063347170,BD2GHI,AOML,AGULHAS_II,South
2018-01-29T01:00:28Z,1517187629,2018,1,0,29.042,29.042,-51.1782,18.584,1005.4,2.55,-999.0,yes,yes,no,300234063347170,BD2GHI,AOML,AGULHAS_II,South
2018-01-29T02:00:57Z,1517191258,2018,2,1,29.084,29.084,-51.1704,18.6002,1004.7,2.55,-999.0,yes,yes,no,300234063347170,BD2GHI,AOML,AGULHAS_II,South
2018-01-29T03:00:00Z,1517194800,2018,3,0,29.125,29.125,-51.1644,18.6146,1004.0,2.55,-999.0,yes,yes,no,300234063347170,BD2GHI,AOML,AGULHAS_II,South
2018-01-29T04:00:28Z,1517198429,2018,4,0,29.167,29.167,-51.1596,18.6288,1002.5,2.55,-999.0,yes,yes,no,300234063347170,BD2GHI,AOML,AGULHAS_II,South
2018-01-29T04:59:31Z,1517201971,2018,5,0,29.208,29.208,-51.1564,18.643,1001.7,2.56,-999.0,yes,yes,no,300234063347170,BD2GHI,AOML,AGULHAS_II,South
2018-01-29T06:02:52Z,1517205773,2018,6,3,29.252,29.252,-51.1522,18.6622,1000.9,2.57,-999.0,yes,yes,no,300234063347170,BD2GHI,AOML,AGULHAS_II,South
2018-01-29T07:00:28Z,1517209229,2018,7,0,29.292,29.292,-51.1514,18.68,1000.0,2.58,-999.0,yes,yes,no,300234063347170,BD2GHI,AOML,AGULHAS_II,South
2018-01-29T07:59:31Z,1517212771,2018,8,0,29.333,29.333,-51.1512,18.7022,999.1,2.61,-999.0,yes,yes,no,300234063347170,BD2GHI,AOML,AGULHAS_II,South
2018-01-29T09:00:00Z,1517216400,2018,9,0,29.375,29.375,-51.151,18.7268,997.8,2.63,-999.0,yes,yes,no,300234063347170,BD2GHI,AOML,AGULHAS_II,South
2018-01-29T10:00:28Z,1517220029,2018,10,1,29.417,29.417,-51.1476,18.7558,997.2,2.66,-999.0,yes,yes,no,300234063347170,BD2GHI,AOML,AGULHAS_II,South
2018-01-29T10:59:31Z,1517223571,2018,11,0,29.458,29.458,-51.142,18.7884,996.2,2.67,-999.0,yes,yes,no,300234063347170,BD2GHI,AOML,AGULHAS_II,South
2018-01-29T12:00:00Z,1517227200,2018,12,0,29.5,29.5,-51.1386,18.8184,995.0,2.68,-999.0,yes,yes,no,300234063347170,BD2GHI,AOML,AGULHAS_II,South
2018-01-29T13:00:28Z,1517230829,2018,13,0,29.542,29.542,-51.1368,18.8476,994.1,2.66,-999.0,yes,yes,no,300234063347170,BD2GHI,AOML,AGULHAS_II,South
2018-01-29T13:59:31Z,1517234371,2018,14,0,29.583,29.583,-51.129,18.8726,993.6,2.67,-999.0,yes,yes,no,300234063347170,BD2GHI,AOML,AGULHAS_II,South
2018-01-29T15:00:00Z,1517238000,2018,15,0,29.625,29.625,-51.1222,18.9028,993.1,2.67,-999.0,yes,yes,no,300234063347170,BD2GHI,AOML,AGULHAS_II,South
2018-01-29T16:00:28Z,1517241629,2018,16,0,29.667,29.667,-51.1156,18.9268,992.9,2.67,-999.0,yes,yes,no,300234063347170,BD2GHI,AOML,AGULHAS_II,South
2018-01-29T17:02:24Z,1517245344,2018,17,3,29.71,29.71,-51.1098,18.9482,993.0,2.67,-999.0,yes,yes,no,300234063347170,BD2GHI,AOML,AGULHAS_II,South
2018-01-29T18:00:00Z,1517248800,2018,18,0,29.75,29.75,-51.104,18.9652,993.7,2.65,-999.0,yes,yes,no,300234063347170,BD2GHI,AOML,AGULHAS_II,South
2018-01-29T19:00:28Z,1517252429,2018,19,0,29.792,29.792,-51.0994,18.984,993.8,2.64,-999.0,yes,yes,no,300234063347170,BD2GHI,AOML,AGULHAS_II,South
2018-01-29T20:02:24Z,1517256144,2018,20,2,29.835,29.835,-51.0982,19.0066,993.8,2.64,-999.0,yes,yes,no,300234063347170,BD2GHI,AOML,AGULHAS_II,South
2018-01-29T21:00:00Z,1517259600,2018,21,0,29.875,29.875,-51.0974,19.0288,993.5,2.64,-999.0,yes,yes,no,300234063347170,BD2GHI,AOML,AGULHAS_II,South
2018-01-29T22:00:28Z,1517263229,2018,22,0,29.917,29.917,-51.0966,19.0518,993.1,2.63,-999.0,yes,yes,no,300234063347170,BD2GHI,AOML,AGULHAS_II,South
2018-01-29T22:59:31Z,1517266771,2018,23,0,29.958,29.958,-51.0952,19.0786,992.8,2.63,-999.0,yes,yes,no,300234063347170,BD2GHI,AOML,AGULHAS_II,South
2018-01-30T01:00:28Z,1517274029,2018,1,1,30.042,30.042,-51.0964,19.138,991.4,2.62,-999.0,yes,yes,no,300234063347170,BD2GHI,AOML,AGULHAS_II,South
2018-01-30T01:59:31Z,1517277571,2018,2,0,30.083,30.083,-51.0972,19.1688,991.0,2.62,-999.0,yes,yes,no,300234063347170,BD2GHI,AOML,AGULHAS_II,South
2018-01-30T03:00:00Z,1517281200,2018,3,0,30.125,30.125,-51.0978,19.203,990.7,2.62,-999.0,yes,yes,no,300234063347170,BD2GHI,AOML,AGULHAS_II,South
2018-01-30T04:00:28Z,1517284829,2018,4,0,30.167,30.167,-51.0974,19.2366,990.6,2.62,-999.0,yes,yes,no,300234063347170,BD2GHI,AOML,AGULHAS_II,South
2018-01-30T06:00:00Z,1517292000,2018,6,0,30.25,30.25,-51.0942,19.305,991.5,2.62,-999.0,yes,yes,no,300234063347170,BD2GHI,AOML,AGULHAS_II,South
2018-01-30T07:00:28Z,1517295629,2018,7,0,30.292,30.292,-51.089,19.3432,992.1,2.62,-999.0,yes,yes,no,300234063347170,BD2GHI,AOML,AGULHAS_II,South
2018-01-30T08:02:24Z,1517299344,2018,8,3,30.335,30.335,-51.0864,19.373,992.4,2.62,-999.0,yes,yes,no,300234063347170,BD2GHI,AOML,AGULHAS_II,South
2018-01-30T09:00:00Z,1517302800,2018,9,0,30.375,30.375,-51.087,19.3978,993.2,2.62,-999.0,yes,yes,no,300234063347170,BD2GHI,AOML,AGULHAS_II,South
2018-01-30T11:03:50Z,1517310230,2018,11,4,30.461,30.461,-51.084,19.4536,994.7,2.62,-999.0,yes,yes,no,300234063347170,BD2GHI,AOML,AGULHAS_II,South
2018-01-30T12:00:00Z,1517313600,2018,12,0,30.5,30.5,-51.0862,19.4738,995.2,2.56,-999.0,yes,yes,no,300234063347170,BD2GHI,AOML,AGULHAS_II,South
2018-01-30T14:00:57Z,1517320858,2018,14,1,30.584,30.584,-51.0998,19.5216,996.3,2.57,-999.0,yes,yes,no,300234063347170,BD2GHI,AOML,AGULHAS_II,South
2018-01-30T16:01:55Z,1517328115,2018,16,2,30.668,30.668,-51.1132,19.5876,998.5,2.61,-999.0,yes,yes,no,300234063347170,BD2GHI,AOML,AGULHAS_II,South
2018-01-30T16:59:31Z,1517331571,2018,17,0,30.708,30.708,-51.1168,19.6206,999.6,2.62,-999.0,yes,yes,no,300234063347170,BD2GHI,AOML,AGULHAS_II,South
2018-01-30T18:01:26Z,1517335286,2018,18,2,30.751,30.751,-51.1212,19.6614,1000.8,2.61,-999.0,yes,yes,no,300234063347170,BD2GHI,AOML,AGULHAS_II,South
2018-01-30T19:00:28Z,1517338829,2018,19,0,30.792,30.792,-51.121,19.697,1002.2,2.59,-999.0,yes,yes,no,300234063347170,BD2GHI,AOML,AGULHAS_II,South
2018-01-30T19:59:31Z,1517342371,2018,20,0,30.833,30.833,-51.1184,19.7342,1003.3,2.55,-999.0,yes,yes,no,300234063347170,BD2GHI,AOML,AGULHAS_II,South
2018-01-30T21:00:00Z,1517346000,2018,21,0,30.875,30.875,-51.1142,19.7688,1004.2,2.51,-999.0,yes,yes,no,300234063347170,BD2GHI,AOML,AGULHAS_II,South
2018-01-30T22:00:28Z,1517349629,2018,22,0,30.917,30.917,-51.1088,19.8002,1004.9,2.5,-999.0,yes,yes,no,300234063347170,BD2GHI,AOML,AGULHAS_II,South
2018-01-30T22:59:31Z,1517353171,2018,23,0,30.958,30.958,-51.0996,19.8328,1005.6,2.47,-999.0,yes,yes,no,300234063347170,BD2GHI,AOML,AGULHAS_II,South
2018-01-31T01:03:21Z,1517360602,2018,1,3,31.044,31.044,-51.09,19.8886,1006.4,2.38,-999.0,yes,yes,no,300234063347170,BD2GHI,AOML,AGULHAS_II,South
2018-01-31T01:59:31Z,1517363971,2018,2,0,31.083,31.083,-51.0844,19.9152,1006.8,2.39,-999.0,yes,yes,no,300234063347170,BD2GHI,AOML,AGULHAS_II,South
2018-01-31T03:00:00Z,1517367600,2018,3,0,31.125,31.125,-51.0786,19.9428,1007.4,2.4,-999.0,yes,yes,no,300234063347170,BD2GHI,AOML,AGULHAS_II,South
2018-01-31T04:00:28Z,1517371229,2018,4,1,31.167,31.167,-51.077,19.9668,1008.0,2.4,-999.0,yes,yes,no,300234063347170,BD2GHI,AOML,AGULHAS_II,South
2018-01-31T04:59:31Z,1517374771,2018,5,0,31.208,31.208,-51.0624,20.0012,1008.3,2.4,-999.0,yes,yes,no,300234063347170,BD2GHI,AOML,AGULHAS_II,South
2018-01-31T06:00:00Z,1517378400,2018,6,0,31.25,31.25,-51.0528,20.0324,1008.4,2.4,-999.0,yes,yes,no,300234063347170,BD2GHI,AOML,AGULHAS_II,South
2018-01-31T07:00:28Z,1517382029,2018,7,1,31.292,31.292,-51.0462,20.0616,1008.5,2.4,-999.0,yes,yes,no,300234063347170,BD2GHI,AOML,AGULHAS_II,South
2018-01-31T08:00:57Z,1517385658,2018,8,1,31.334,31.334,-51.0346,20.0906,1008.6,2.41,-999.0,yes,yes,no,300234063347170,BD2GHI,AOML,AGULHAS_II,South
2018-01-31T09:00:00Z,1517389200,2018,9,0,31.375,31.375,-51.0206,20.118,1008.7,2.41,-999.0,yes,yes,no,300234063347170,BD2GHI,AOML,AGULHAS_II,South
2018-01-31T10:00:28Z,1517392829,2018,10,1,31.417,31.417,-51.0036,20.1418,1008.4,2.43,-999.0,yes,yes,no,300234063347170,BD2GHI,AOML,AGULHAS_II,South
2018-01-31T10:59:31Z,1517396371,2018,11,0,31.458,31.458,-50.9912,20.166,1007.7,2.46,-999.0,yes,yes,no,300234063347170,BD2GHI,AOML,AGULHAS_II,South
2018-01-31T12:00:00Z,1517400000,2018,12,0,31.5,31.5,-50.978,20.1884,1007.2,2.44,-999.0,yes,yes,no,300234063347170,BD2GHI,AOML,AGULHAS_II,South
2018-01-31T13:00:28Z,1517403629,2018,13,1,31.542,31.542,-50.9664,20.2108,1006.9,2.4,-999.0,yes,yes,no,300234063347170,BD2GHI,AOML,AGULHAS_II,South
2018-01-31T13:59:31Z,1517407171,2018,14,0,31.583,31.583,-50.9562,20.2298,1006.3,2.35,-999.0,yes,yes,no,300234063347170,BD2GHI,AOML,AGULHAS_II,South
2018-01-31T15:00:00Z,1517410800,2018,15,0,31.625,31.625,-50.9478,20.253,1006.2,2.34,-999.0,yes,yes,no,300234063347170,BD2GHI,AOML,AGULHAS_II,South
2018-01-31T16:00:28Z,1517414429,2018,16,0,31.667,31.667,-50.9392,20.2734,1006.3,2.34,-999.0,yes,yes,no,300234063347170,BD2GHI,AOML,AGULHAS_II,South
2018-01-31T16:59:31Z,1517417971,2018,17,0,31.708,31.708,-50.9302,20.2894,1006.4,2.34,-999.0,yes,yes,no,300234063347170,BD2GHI,AOML,AGULHAS_II,South
2018-01-31T18:00:00Z,1517421600,2018,18,0,31.75,31.75,-50.9218,20.3032,1006.5,2.4,-999.0,yes,yes,no,300234063347170,BD2GHI,AOML,AGULHAS_II,South
2018-01-31T19:00:28Z,1517425229,2018,19,0,31.792,31.792,-50.9146,20.3134,1007.0,2.49,-999.0,yes,yes,no,300234063347170,BD2GHI,AOML,AGULHAS_II,South
2018-01-31T19:59:31Z,1517428771,2018,20,0,31.833,31.833,-50.9074,20.3252,1006.5,2.53,-999.0,yes,yes,no,300234063347170,BD2GHI,AOML,AGULHAS_II,South
2018-01-31T21:00:00Z,1517432400,2018,21,0,31.875,31.875,-50.903,20.3354,1005.9,2.55,-999.0,yes,yes,no,300234063347170,BD2GHI,AOML,AGULHAS_II,South
2018-01-31T22:00:28Z,1517436029,2018,22,0,31.917,31.917,-50.898,20.346,1005.5,2.51,-999.0,yes,yes,no,300234063347170,BD2GHI,AOML,AGULHAS_II,South
2018-01-31T22:59:31Z,1517439571,2018,23,0,31.958,31.958,-50.893,20.356,1004.6,2.56,-999.0,yes,yes,no,300234063347170,BD2GHI,AOML,AGULHAS_II,South
2018-02-01T00:00:00Z,1517443200,2018,0,0,32.0,32.0,-50.8896,20.3678,1003.6,2.57,-999.0,yes,yes,no,300234063347170,BD2GHI,AOML,AGULHAS_II,South
2018-02-01T01:00:28Z,1517446829,2018,1,0,32.042,32.042,-50.8878,20.3828,1001.8,2.58,-999.0,yes,yes,no,300234063347170,BD2GHI,AOML,AGULHAS_II,South
2018-02-01T01:59:31Z,1517450371,2018,2,0,32.083,32.083,-50.8866,20.402,1000.4,2.59,-999.0,yes,yes,no,300234063347170,BD2GHI,AOML,AGULHAS_II,South
2018-02-01T03:00:00Z,1517454000,2018,3,0,32.125,32.125,-50.8844,20.4198,998.8,2.6,-999.0,yes,yes,no,300234063347170,BD2GHI,AOML,AGULHAS_II,South
2018-02-01T04:03:21Z,1517457802,2018,4,4,32.169,32.169,-50.8832,20.4372,997.1,2.6,-999.0,yes,yes,no,300234063347170,BD2GHI,AOML,AGULHAS_II,South
2018-02-01T04:59:31Z,1517461171,2018,5,0,32.208,32.208,-50.8818,20.4534,995.7,2.6,-999.0,yes,yes,no,300234063347170,BD2GHI,AOML,AGULHAS_II,South
2018-02-01T07:00:28Z,1517468429,2018,7,0,32.292,32.292,-50.8724,20.4912,993.1,2.58,-999.0,yes,yes,no,300234063347170,BD2GHI,AOML,AGULHAS_II,South
